Simultaneous Nadir Overpasses (SNOs) Predictions

Prediction of SNOs between GOES-14 and NOAA-20 Satellite Orbit:

Table of predicted SNOs for the next 14.0 days since TLE Epoch: 12/10/2022
Index Date Time (GOES-14) GOES-14 Lat,Lon NOAA-20 Lat,Lon Distance(km) Time Diff (sec)
1 12/10/2022 20:32:56 0.05,-104.02 -0.69,-107.25 367.80 80
2 12/11/2022 20:16:52 0.04,-104.03 0.34,-102.72 149.17 80
3 12/13/2022 08:38:43 -0.06,-104.39 0.78,-108.01 413.79 80
4 12/14/2022 08:17:19 -0.04,-104.38 -0.26,-103.49 101.85 80
5 12/16/2022 20:20:31 0.05,-104.03 -0.02,-104.24 25.62 80
6 12/17/2022 20:04:28 0.04,-104.03 1.01, -99.72 491.69 80
7 12/19/2022 08:26:18 -0.06,-104.40 0.10,-105.01 69.88 80
8 12/20/2022 08:04:54 -0.04,-104.39 -0.94,-100.49 445.81 80
9 12/21/2022 20:26:50 0.06,-104.02 -0.36,-105.77 200.04 80
10 12/22/2022 20:10:46 0.05,-104.02 0.67,-101.24 316.56 80
